Location: Pontbriand
(46.1542°N, 71.2542°W)
Time: 15:59:40
(UTC+00:00)

Envisat - Pass Details

Date: 08 December 2021
Orbit: 764 x 766 km, 98.2° (Epoch: 16 January)

Event Time Altitude Azimuth Distance (km) Brightness Sun altitude
Rises 11:22:31 0° 359° (N) 3,244 6.0 -8.8°
Reaches altitude 10° 11:25:33 10° 341° (NNW) 2,313 5.1 -8.3°
Maximum altitude 11:28:46 17° 301° (WNW) 1,856 4.4 -7.8°
Drops below altitude 10° 11:31:58 10° 261° (W) 2,302 5.0 -7.3°
Sets 11:35:00 0° 242° (WSW) 3,224 5.9 -6.8°
